Location: Newark
(41.0400°S, 62.7845°W)
Time: 23:29:34
(UTC+00:00)

Courier 1B Rocket - Pass Details

Date: 05 December 2021
Orbit: 920 x 1202 km, 28.2° (Epoch: 20 January)

Event Time Altitude Azimuth Distance (km) Brightness Sun altitude
Rises 16:56:38 0° 285° (WNW) 4,052 8.5 68.1°
Reaches altitude 10° 16:59:49 10° 295° (WNW) 3,114 8.1 67.8°
Maximum altitude 17:06:21 30° 352° (N) 2,018 7.5 67.0°
Drops below altitude 10° 17:12:54 10° 49° (NE) 3,128 7.8 66.2°
Sets 17:16:07 0° 59° (ENE) 4,073 8.2 65.7°
